Regional Weather Roundup
Issued by NWS

Home | Current Version | Previous Version | Text Only | Print | Product List | Glossary On
Versions: 1 2 3 4 5 6 7 8 9 10 11 12 13 14 15 16 17 18 19 20 21 22 23 24 25 26 27 28 29 30 31 32 33 34 35 36 37 38 39 40 41 42 43 44 45 46 47 48 49 50
000
ASUS43 KMKX 260800
RWRWI

WISCONSIN REGIONAL WEATHER ROUNDUP
NATIONAL WEATHER SERVICE MILWAUKEE/SULLIVAN WI
200 AM CST MON JAN 26 2015

NOTE: "FAIR" INDICATES FEW OR NO CLOUDS BELOW 12,000 FEET WITH NO
SIGNIFICANT WEATHER AND/OR OBSTRUCTIONS TO VISIBILITY.

WIZ001-002-006>008-014>016-023>028-260900-
NORTHWEST WISCONSIN

CITY           SKY/WX    TMP DP  RH WIND       PRES   REMARKS
SUPERIOR ARPT  CLOUDY    22  13  68 SW8       29.87F WCI  13
ASHLAND        CLOUDY    17  10  74 CALM      29.89F
HAYWARD        CLOUDY    18   9  68 S10       29.87F WCI   6
SIREN          CLOUDY    21  13  70 S6        29.88F WCI  14
CUMBERLAND     CLOUDY    18  10  73 SW8       29.90R WCI   7
RICE LAKE      CLOUDY    18  11  75 S7        29.93F WCI   8
CHETEK         CLOUDY    19  11  73 S6        29.92F WCI  10
LADYSMITH      CLOUDY    17  10  76 S5        29.92F WCI   9
EAU CLAIRE     NOT AVBL
MENOMONIE      CLOUDY    20  13  75 SE7       29.94F WCI  11
NEW RICHMOND   CLOUDY    19  15  84 S7        29.90F WCI  10
OSCEOLA        CLOUDY    21  17  83 S7        29.93F WCI  13
$$

WIZ003>005-009-010-017-018-260900-
NORTH CENTRAL WISCONSIN

CITY           SKY/WX    TMP DP  RH WIND       PRES   REMARKS
MANITOWISH WTR CLOUDY    10   4  75 SW6       29.87F WCI   1
ARBOR VITAE    MOCLDY    11   6  77 S5        29.88F WCI   3
WOODRUFF       MOCLDY    11   6  77 S5        29.88F WCI   3
RHINELANDER    PTCLDY    10   3  73 S6        29.90F WCI   0
EAGLE RIVER    MOCLDY    10   3  75 CALM      29.90S
LAND O LAKES   CLOUDY    10   5  80 CALM      29.89F
PHILLIPS       CLOUDY    11   6  79 S5        29.89F WCI   3
TOMAHAWK       PTCLDY     8   3  82 CALM      29.92F
MEDFORD        CLOUDY    13   6  73 S9        29.92F WCI   1
MERRILL        CLEAR      8   4  84 CALM      29.93F
$$

WIZ029-030-035-036-043>047-260900-
CENTRAL WISCONSIN

CITY           SKY/WX    TMP DP  RH WIND       PRES   REMARKS
WAUSAU         PTCLDY    10   5  80 SE5       29.94F WCI   2
MOSINEE        CLEAR     10   7  85 S5        29.97S WCI   2
MARSHFIELD     CLEAR     12   6  77 S7        29.95F WCI   1
STEVENS POINT  CLEAR      4   1  88 CALM      29.99S
WAUPACA        PTCLDY    12   7  82 CALM      30.00F
WAUTOMA        NOT AVBL
WISC RAPIDS    CLEAR     10   5  80 S5        29.99F WCI   2
CAMP DOUGLAS   NOT AVBL
$$

WIZ011>013-019>022-031-037>040-048>050-260900-
NORTHEAST WISCONSIN

CITY           SKY/WX    TMP DP  RH WIND       PRES   REMARKS
ANTIGO         PTCLDY     6   2  84 S6        29.94S WCI  -4
SHAWANO        PTCLDY    10   6  86 CALM      30.00F
OCONTO         PTCLDY     7   5  91 CALM      30.01F
STURGEON BAY   PTCLDY    10   5  79 CALM      30.01S
GREEN BAY      PTCLDY    12   8  84 CALM      30.01F
MANITOWOC      NOT AVBL
APPLETON       PTCLDY    12   5  73 CALM      29.99F
CLINTONVILLE   PTCLDY    10   7  85 CALM      29.99F
OSHKOSH        PTCLDY    11   6  81 CALM      29.99F
$$

WIZ032>034-041-042-053>061-260900-
SOUTHWEST WISCONSIN

CITY           SKY/WX    TMP DP  RH WIND       PRES   REMARKS
LA CROSSE      CLOUDY    23  13  65 S8        30.00F WCI  14
SPARTA         PTCLDY    14  10  86 CALM      30.01F
VIROQUA        CLOUDY    18  13  80 S7        29.98S WCI   8
BOSCOBEL       PTCLDY    14  10  84 CALM      30.04F
PRAIRIE DU CHI CLOUDY    18  12  80 CALM      30.04F
PLATTEVILLE    CLEAR     15  11  85 CALM      30.02F
$$

WIZ056-057-062-063-064-067-068-260900-
SOUTH CENTRAL WISCONSIN

CITY           SKY/WX    TMP DP  RH WIND       PRES   REMARKS
REEDSBURG      CLEAR     12   9  89 CALM      30.01F
BARABOO/DELLS  CLEAR     10   8  88 CALM      30.00F
LONE ROCK      NOT AVBL
MINERAL POINT  NOT AVBL
MADISON        CLEAR     11   7  84 CALM      30.00F
MIDDLETON      CLEAR     12   9  85 CALM      30.01F
WATERTOWN      CLEAR     13   9  83 CALM      30.00F
MONROE         PTCLDY    14  12  92 N6        29.99F WCI   5
JANESVILLE     FAIR      14  10  85 NW3       30.01F
$$

WIZ051-052-058>065-066-070>072-260900-
SOUTHEAST WISCONSIN

CITY           SKY/WX    TMP DP  RH WIND       PRES   REMARKS
MILWAUKEE      MOCLDY    18  11  74 NW6       30.00F WCI  10
WAUKESHA       CLEAR     12   9  85 W6        30.00S WCI   3
MILWAUKEE/TIMM CLEAR     16  10  79 CALM      30.01S
RACINE         CLOUDY    24  15  68 E6        30.01F WCI  17
BURLINGTON     CLEAR     12   9  87 NW3       30.00R
KENOSHA        CLOUDY    17  12  80 NW5       29.99F WCI  10
FOND DU LAC    PTCLDY    11   7  84 CALM      30.00F
SHEBOYGAN      PTCLDY    12   8  84 CALM      29.99F
WEST BEND      PTCLDY    12   9  85 CALM      30.00S
JUNEAU         CLEAR     12   8  83 CALM      30.01F
$$

LSZ147-162-260900-
LAKE SUPERIOR

STATION/POSITION TIME  TEMP    WIND        PRES    WAVE
                       AIR SEA DIR/SP/G            HT/PER
                 (UTC) (F)     (DEG/KT/KT) (MB)    (FT/S)
DEVILS ISLAND    0700   21     200/  6/ 10 1013.6F
PORT WING        0700   20     170/  8/ 12 1012.2F
SAXON HARBOR     0700   19     190/  6/ 11 1012.5F
$$

LMZ867-665-643>646-260900-
LAKE MICHIGAN

STATION/POSITION TIME  TEMP    WIND        PRES    WAVE
                       AIR SEA DIR/SP/G            HT/PER
                 (UTC) (F)     (DEG/KT/KT) (MB)    (FT/S)
NORTHPORT PIER   0713   10      CALM  /  3 1016.6F
SISTER BAY       0613    9        CALM       N/A
KEWAUNEE LAKESHO 0700   14     280/  4/  6 1015.7F
SHEBOYGAN LAKESH 0700   23      80/  8/ 10 1017.6F
PORT WASHINGTON  0740   18        CALM     1016.9F
MILWAUKEE LAKESH 0700   20     330/  6/  8   N/A
KENOSHA   LAKESH 0700   25      60/  8/ 11 1016.3R
$$

TC  - TEMPERATURE IN CELSIUS
VSB - VISIBILITY IN STATUTE MILES
WCI - WIND CHILL INDEX
HX  - HEAT INDEX



USA.gov is the U.S. government's official web portal to all federal, state and local government web resources and services.